Location: *
(40.7873°S, 98.7174°E)
Time: 11:24:30
(UTC+00:00)

Kosmos-1816 - Pass Details

Date: 21 June 2024
Orbit: 959 x 1007 km, 82.9° (Epoch: 23 July)

Event Time Altitude Azimuth Distance (km) Brightness Sun altitude
Rises 12:12:21 0° 186° (S) 3,766 9.0 -23.3°
Reaches altitude 10° 12:14:56 10° 184° (S) 2,805 8.3 -23.8°
Maximum altitude 12:21:24 76° 98° (E) 1,037 5.9 -25.0°
Drops below altitude 10° 12:27:42 10° 12° (NNE) 2,741 8.3 -26.2°
Sets 12:30:12 0° 10° (N) 3,675 9.0 -26.7°
